| time (UTC) | temp C | wind direction | speed KPH | gust KPH | rain 1hr cm | rain 24hr cm | rain mn cm | humidity % | barometer mb |
| 20260506012424 | 26 | 195 | 1.6 | 3.2 | 0.00 | 0.00 | 0.00 | 82 | 1009.1 |
| 20260506011921 | 27 | 163 | 1.6 | 3.2 | 0.00 | 0.00 | 0.00 | 81 | 1009.2 |
| 20260506011418 | 27 | 189 | 4.8 | 8.0 | 0.00 | 0.00 | 0.00 | 80 | 1009.0 |
| 20260506010915 | 27 | 205 | 1.6 | 3.2 | 0.00 | 0.00 | 0.00 | 80 | 1009.1 |
| 20260506010414 | 27 | 228 | 3.2 | 3.2 | 0.00 | 0.00 | 0.00 | 79 | 1009.1 |
| 20260506005910 | 27 | 209 | 1.6 | 3.2 | 0.00 | 0.00 | 0.00 | 79 | 1009.1 |
| 20260506005408 | 27 | 211 | 3.2 | 3.2 | 0.00 | 0.00 | 0.00 | 79 | 1009.1 |
| 20260506004902 | 27 | 205 | 4.8 | 8.0 | 0.00 | 0.00 | 0.00 | 78 | 1009.2 |
| 20260506004401 | 27 | 176 | 3.2 | 3.2 | 0.00 | 0.00 | 0.00 | 78 | 1009.4 |
| 20260506003857 | 27 | 179 | 3.2 | 4.8 | 0.00 | 0.00 | 0.00 | 78 | 1009.2 |
| 20260506003353 | 27 | 181 | 3.2 | 3.2 | 0.00 | 0.00 | 0.00 | 78 | 1009.0 |
| 20260506002849 | 27 | 160 | 4.8 | 8.0 | 0.00 | 0.00 | 0.00 | 77 | 1009.2 |
| 20260506002346 | 28 | 212 | 0.0 | 1.6 | 0.00 | 0.00 | 0.00 | 77 | 1009.1 |
| 20260506001841 | 28 | 212 | 1.6 | 1.6 | 0.00 | 0.00 | 0.00 | 76 | 1009.1 |
| 20260506001339 | 28 | 220 | 3.2 | 4.8 | 0.00 | 0.00 | 0.00 | 76 | 1009.3 |
| 20260506000836 | 28 | 179 | 1.6 | 1.6 | 0.00 | 0.00 | 0.00 | 76 | 1009.3 |
| 20260506000333 | 28 | 214 | 3.2 | 4.8 | 0.00 | 0.00 | 0.00 | 75 | 1009.1 |
| 20260505235830 | 28 | 223 | 1.6 | 3.2 | 0.00 | 0.00 | 0.00 | 75 | 1009.2 |
| 20260505235327 | 28 | 175 | 3.2 | 3.2 | 0.00 | 0.00 | 0.00 | 74 | 1009.3 |
| 20260505234824 | 28 | 188 | 3.2 | 3.2 | 0.00 | 0.00 | 0.00 | 75 | 1009.0 |
| 20260505234322 | 28 | 148 | 3.2 | 9.7 | 0.00 | 0.00 | 0.00 | 75 | 1009.0 |
| 20260505233819 | 28 | 206 | 0.0 | 0.0 | 0.00 | 0.00 | 0.00 | 75 | 1008.8 |
| 20260505233317 | 28 | 227 | 4.8 | 4.8 | 0.00 | 0.00 | 0.00 | 74 | 1008.8 |
| 20260505232814 | 28 | 154 | 3.2 | 4.8 | 0.00 | 0.00 | 0.00 | 74 | 1008.7 |
| 20260505232311 | 28 | 192 | 6.4 | 8.0 | 0.00 | 0.00 | 0.00 | 75 | 1008.9 |
| 20260505231808 | 28 | 197 | 6.4 | 9.7 | 0.00 | 0.00 | 0.00 | 73 | 1008.8 |
| 20260505231306 | 28 | 201 | 8.0 | 12.9 | 0.00 | 0.00 | 0.00 | 73 | 1008.8 |
| 20260505230804 | 28 | 174 | 3.2 | 3.2 | 0.00 | 0.00 | 0.00 | 72 | 1009.0 |
| 20260505230301 | 28 | 133 | 9.7 | 11.3 | 0.00 | 0.00 | 0.00 | 72 | 1008.9 |
| 20260505225757 | 28 | 165 | 4.8 | 8.0 | 0.00 | 0.00 | 0.00 | 73 | 1008.8 |
| 20260505225254 | 28 | 214 | 3.2 | 8.0 | 0.00 | 0.00 | 0.00 | 72 | 1008.7 |
| 20260505224749 | 28 | 215 | 8.0 | 9.7 | 0.00 | 0.00 | 0.00 | 72 | 1008.8 |
| 20260505224247 | 28 | 179 | 8.0 | 11.3 | 0.00 | 0.00 | 0.00 | 72 | 1008.7 |
| 20260505223745 | 28 | 196 | 4.8 | 4.8 | 0.00 | 0.00 | 0.00 | 72 | 1008.7 |
| 20260505223241 | 29 | 208 | 6.4 | 8.0 | 0.00 | 0.00 | 0.00 | 71 | 1008.6 |
| 20260505222737 | 29 | 208 | 4.8 | 8.0 | 0.00 | 0.00 | 0.00 | 72 | 1008.6 |
| 20260505222233 | 29 | 161 | 3.2 | 4.8 | 0.00 | 0.00 | 0.00 | 72 | 1008.6 |
| 20260505221731 | 29 | 185 | 8.0 | 11.3 | 0.00 | 0.00 | 0.00 | 71 | 1008.7 |
| 20260505221227 | 28 | 202 | 3.2 | 3.2 | 0.00 | 0.00 | 0.00 | 72 | 1008.7 |
| 20260505220724 | 29 | 155 | 6.4 | 8.0 | 0.00 | 0.00 | 0.00 | 72 | 1008.7 |
| 20260505220222 | 30 | 145 | 8.0 | 11.3 | 0.00 | 0.00 | 0.00 | 71 | 1008.9 |
| 20260505215720 | 29 | 206 | 1.6 | 3.2 | 0.00 | 0.00 | 0.00 | 71 | 1008.7 |
| 20260505215217 | 30 | 198 | 12.9 | 17.7 | 0.00 | 0.00 | 0.00 | 70 | 1008.8 |
| 20260505214715 | 30 | 173 | 4.8 | 8.0 | 0.00 | 0.00 | 0.00 | 70 | 1008.7 |
| 20260505214212 | 30 | 164 | 9.7 | 11.3 | 0.00 | 0.00 | 0.00 | 70 | 1009.0 |
| 20260505213709 | 30 | 145 | 4.8 | 8.0 | 0.00 | 0.00 | 0.00 | 70 | 1009.0 |
| 20260505213206 | 30 | 183 | 6.4 | 9.7 | 0.00 | 0.00 | 0.00 | 70 | 1009.0 |
| 20260505212702 | 30 | 203 | 8.0 | 9.7 | 0.00 | 0.00 | 0.00 | 70 | 1009.0 |
| 20260505212200 | 30 | 134 | 11.3 | 14.5 | 0.00 | 0.00 | 0.00 | 71 | 1009.0 |
| 20260505211656 | 30 | 173 | 6.4 | 8.0 | 0.00 | 0.00 | 0.00 | 71 | 1009.5 |
| 20260505211154 | 30 | 174 | 8.0 | 9.7 | 0.00 | 0.00 | 0.00 | 68 | 1009.1 |
| 20260505210650 | 30 | 145 | 6.4 | 11.3 | 0.00 | 0.00 | 0.00 | 67 | 1009.0 |
| 20260505210147 | 30 | 195 | 4.8 | 4.8 | 0.00 | 0.00 | 0.00 | 69 | 1009.1 |
| 20260505205644 | 30 | 184 | 3.2 | 3.2 | 0.00 | 0.00 | 0.00 | 68 | 1009.2 |
| 20260505205143 | 30 | 217 | 0.0 | 1.6 | 0.00 | 0.00 | 0.00 | 69 | 1009.1 |
| 20260505204639 | 30 | 219 | 4.8 | 8.0 | 0.00 | 0.00 | 0.00 | 68 | 1009.5 |
| 20260505204137 | 30 | 201 | 8.0 | 11.3 | 0.00 | 0.00 | 0.00 | 67 | 1009.3 |
| 20260505203634 | 30 | 209 | 8.0 | 11.3 | 0.00 | 0.00 | 0.00 | 68 | 1009.5 |
| 20260505203131 | 30 | 204 | 1.6 | 1.6 | 0.00 | 0.00 | 0.00 | 68 | 1009.5 |
| 20260505202626 | 30 | 227 | 1.6 | 1.6 | 0.00 | 0.00 | 0.00 | 70 | 1010.1 |
| 20260505202122 | 30 | 157 | 9.7 | 11.3 | 0.00 | 0.00 | 0.00 | 69 | 1009.7 |
| 20260505201619 | 30 | 146 | 8.0 | 9.7 | 0.00 | 0.00 | 0.00 | 69 | 1010.0 |
| 20260505201117 | 30 | 224 | 6.4 | 8.0 | 0.00 | 0.00 | 0.00 | 69 | 1010.2 |
| 20260505200615 | 30 | 209 | 8.0 | 11.3 | 0.00 | 0.00 | 0.00 | 70 | 1010.0 |
| 20260505200111 | 30 | 194 | 4.8 | 8.0 | 0.00 | 0.00 | 0.00 | 68 | 1010.1 |
| 20260505195608 | 29 | 189 | 4.8 | 4.8 | 0.00 | 0.00 | 0.00 | 70 | 1010.2 |
| 20260505195106 | 29 | 188 | 1.6 | 4.8 | 0.00 | 0.00 | 0.00 | 70 | 1010.2 |
| 20260505194602 | 30 | 183 | 1.6 | 3.2 | 0.00 | 0.00 | 0.00 | 70 | 1010.3 |
| 20260505194058 | 30 | 188 | 4.8 | 4.8 | 0.00 | 0.00 | 0.00 | 70 | 1010.6 |
| 20260505193555 | 30 | 167 | 3.2 | 3.2 | 0.00 | 0.00 | 0.00 | 70 | 1010.5 |
| 20260505193052 | 30 | 162 | 4.8 | 4.8 | 0.00 | 0.00 | 0.00 | 70 | 1010.4 |
| 20260505192551 | 29 | 171 | 3.2 | 9.7 | 0.00 | 0.00 | 0.00 | 71 | 1010.6 |
| 20260505192048 | 28 | 168 | 6.4 | 9.7 | 0.00 | 0.00 | 0.00 | 74 | 1010.5 |
| 20260505191546 | 28 | 195 | 4.8 | 8.0 | 0.00 | 0.00 | 0.00 | 72 | 1010.8 |
| 20260505191044 | 28 | 135 | 8.0 | 9.7 | 0.00 | 0.00 | 0.00 | 71 | 1010.7 |
| 20260505190538 | 29 | 173 | 3.2 | 3.2 | 0.00 | 0.00 | 0.00 | 71 | 1010.8 |
| 20260505190034 | 30 | 212 | 3.2 | 3.2 | 0.00 | 0.00 | 0.00 | 72 | 1010.8 |
| 20260505185531 | 29 | 286 | 1.6 | 3.2 | 0.00 | 0.00 | 0.00 | 71 | 1010.9 |
| 20260505185027 | 29 | 178 | 4.8 | 8.0 | 0.00 | 0.00 | 0.00 | 74 | 1010.9 |
| 20260505184524 | 28 | 160 | 0.0 | 0.0 | 0.00 | 0.00 | 0.00 | 73 | 1010.9 |
| 20260505184021 | 28 | 156 | 1.6 | 1.6 | 0.00 | 0.00 | 0.00 | 74 | 1011.1 |
| 20260505183518 | 28 | 160 | 3.2 | 4.8 | 0.00 | 0.00 | 0.00 | 76 | 1011.2 |
| 20260505183015 | 28 | 189 | 1.6 | 1.6 | 0.00 | 0.00 | 0.00 | 74 | 1011.2 |
| 20260505182512 | 27 | 236 | 6.4 | 9.7 | 0.00 | 0.00 | 0.00 | 75 | 1011.2 |
| 20260505182008 | 28 | 240 | 3.2 | 4.8 | 0.00 | 0.00 | 0.00 | 74 | 1011.4 |
| 20260505181505 | 27 | 175 | 8.0 | 9.7 | 0.00 | 0.00 | 0.00 | 76 | 1011.4 |
| 20260505181003 | 27 | 175 | 9.7 | 12.9 | 0.00 | 0.00 | 0.00 | 76 | 1011.7 |
| 20260505180458 | 27 | 192 | 6.4 | 8.0 | 0.00 | 0.00 | 0.00 | 76 | 1011.4 |
| 20260505175955 | 27 | 162 | 4.8 | 8.0 | 0.00 | 0.00 | 0.00 | 78 | 1011.5 |
| 20260505175451 | 26 | 187 | 1.6 | 1.6 | 0.00 | 0.00 | 0.00 | 80 | 1011.6 |
| 20260505174948 | 26 | 196 | 4.8 | 4.8 | 0.00 | 0.00 | 0.00 | 81 | 1011.9 |
| 20260505174445 | 26 | 173 | 3.2 | 11.3 | 0.00 | 0.00 | 0.00 | 82 | 1012.0 |
| 20260505173941 | 25 | 188 | 3.2 | 3.2 | 0.00 | 0.00 | 0.00 | 82 | 1011.9 |
| 20260505173438 | 26 | 183 | 6.4 | 9.7 | 0.00 | 0.00 | 0.00 | 81 | 1011.9 |
| 20260505172935 | 25 | 184 | 1.6 | 3.2 | 0.00 | 0.00 | 0.00 | 83 | 1012.0 |
| 20260505172433 | 25 | 181 | 8.0 | 8.0 | 0.00 | 0.00 | 0.00 | 83 | 1011.8 |
| 20260505171932 | 25 | 201 | 1.6 | 1.6 | 0.00 | 0.00 | 0.00 | 83 | 1011.9 |
| 20260505171430 | 25 | 195 | 4.8 | 8.0 | 0.00 | 0.00 | 0.00 | 83 | 1012.0 |
| 20260505170926 | 25 | 212 | 1.6 | 3.2 | 0.00 | 0.00 | 0.00 | 83 | 1012.0 |
| 20260505170423 | 25 | 184 | 3.2 | 3.2 | 0.00 | 0.00 | 0.00 | 84 | 1012.3 |
| 20260505165918 | 25 | 184 | 1.6 | 3.2 | 0.00 | 0.00 | 0.00 | 84 | 1012.2 |
| 20260505165414 | 24 | 199 | 0.0 | 0.0 | 0.00 | 0.00 | 0.00 | 85 | 1012.1 |
| 20260505164909 | 24 | 201 | 1.6 | 1.6 | 0.00 | 0.00 | 0.00 | 85 | 1012.1 |
| 20260505164407 | 24 | 201 | 3.2 | 4.8 | 0.00 | 0.00 | 0.00 | 86 | 1012.2 |
| 20260505163905 | 24 | 143 | 4.8 | 4.8 | 0.00 | 0.00 | 0.00 | 86 | 1012.3 |
| 20260505163404 | 23 | 199 | 1.6 | 1.6 | 0.00 | 0.00 | 0.00 | 87 | 1012.1 |
| 20260505162902 | 23 | 198 | 1.6 | 3.2 | 0.00 | 0.00 | 0.00 | 87 | 1012.1 |
| 20260505162357 | 23 | 209 | 0.0 | 1.6 | 0.00 | 0.00 | 0.00 | 87 | 1012.1 |
| 20260505161855 | 23 | 193 | 6.4 | 11.3 | 0.00 | 0.00 | 0.00 | 87 | 1012.0 |
| 20260505161351 | 23 | 186 | 3.2 | 3.2 | 0.00 | 0.00 | 0.00 | 87 | 1012.1 |
| 20260505160849 | 23 | 195 | 3.2 | 4.8 | 0.00 | 0.00 | 0.00 | 88 | 1012.0 |
| 20260505160347 | 23 | 169 | 0.0 | 0.0 | 0.00 | 0.00 | 0.00 | 89 | 1012.2 |
| 20260505153326 | 22 | 191 | 0.0 | 1.6 | 0.00 | 0.00 | 0.00 | 91 | 1012.2 |
| 20260505152823 | 22 | 191 | 1.6 | 3.2 | 0.00 | 0.00 | 0.00 | 91 | 1012.2 |
| 20260505152320 | 22 | 198 | 1.6 | 1.6 | 0.00 | 0.00 | 0.00 | 91 | 1012.3 |
| 20260505151819 | 22 | 173 | 1.6 | 3.2 | 0.00 | 0.00 | 0.00 | 91 | 1012.1 |
| 20260505151317 | 22 | 198 | 1.6 | 3.2 | 0.00 | 0.00 | 0.00 | 91 | 1012.0 |
| 20260505150813 | 22 | 187 | 3.2 | 4.8 | 0.00 | 0.00 | 0.00 | 91 | 1012.1 |
| 20260505150310 | 22 | 207 | 3.2 | 3.2 | 0.00 | 0.00 | 0.00 | 91 | 1011.9 |
| 20260505140235 | 22 | 205 | 1.6 | 3.2 | 0.00 | 0.00 | 0.00 | 92 | 1011.8 |
| 20260505130159 | 21 | 184 | 1.6 | 3.2 | 0.00 | 0.00 | 0.00 | 92 | 1011.2 |
| 20260505124649 | 21 | 199 | 0.0 | 0.0 | 0.00 | 0.00 | 0.00 | 92 | 1011.0 |
| 20260505124145 | 21 | 183 | 1.6 | 3.2 | 0.00 | 0.00 | 0.00 | 92 | 1011.0 |
| 20260505123641 | 21 | 212 | 1.6 | 1.6 | 0.00 | 0.00 | 0.00 | 92 | 1011.0 |
| 20260505123139 | 21 | 164 | 4.8 | 8.0 | 0.00 | 0.00 | 0.00 | 92 | 1010.8 |
| 20260505122635 | 21 | 144 | 1.6 | 3.2 | 0.00 | 0.00 | 0.00 | 92 | 1010.8 |
| 20260505122132 | 21 | 278 | 3.2 | 4.8 | 0.00 | 0.00 | 0.00 | 92 | 1010.7 |
| 20260505121628 | 21 | 201 | 3.2 | 3.2 | 0.00 | 0.00 | 0.00 | 92 | 1010.5 |
| 20260505121125 | 21 | 196 | 4.8 | 8.0 | 0.00 | 0.00 | 0.00 | 92 | 1010.6 |
| 20260505120622 | 21 | 198 | 4.8 | 4.8 | 0.00 | 0.00 | 0.00 | 92 | 1010.4 |
| 20260505120118 | 21 | 193 | 3.2 | 4.8 | 0.00 | 0.00 | 0.00 | 92 | 1010.3 |
| 20260505115612 | 21 | 208 | 0.0 | 0.0 | 0.00 | 0.00 | 0.00 | 92 | 1010.4 |
| 20260505115109 | 21 | 225 | 3.2 | 3.2 | 0.00 | 0.00 | 0.00 | 92 | 1010.3 |
| 20260505114606 | 21 | 190 | 4.8 | 8.0 | 0.00 | 0.00 | 0.00 | 92 | 1010.5 |
| 20260505114103 | 21 | 199 | 3.2 | 3.2 | 0.00 | 0.00 | 0.00 | 92 | 1010.4 |
| 20260505113559 | 21 | 217 | 1.6 | 1.6 | 0.00 | 0.00 | 0.00 | 93 | 1010.2 |
| 20260505113056 | 21 | 238 | 0.0 | 1.6 | 0.00 | 0.00 | 0.00 | 93 | 1010.5 |
| 20260505112552 | 21 | 176 | 3.2 | 3.2 | 0.00 | 0.00 | 0.00 | 93 | 1010.4 |
| 20260505112050 | 21 | 151 | 4.8 | 4.8 | 0.00 | 0.00 | 0.00 | 93 | 1010.4 |
| 20260505111544 | 21 | 170 | 8.0 | 9.7 | 0.00 | 0.00 | 0.00 | 93 | 1010.4 |
| 20260505111040 | 21 | 211 | 1.6 | 3.2 | 0.00 | 0.00 | 0.00 | 93 | 1010.6 |
| 20260505110537 | 21 | 205 | 3.2 | 4.8 | 0.00 | 0.00 | 0.00 | 93 | 1010.2 |
| 20260505102009 | 21 | 187 | 4.8 | 4.8 | 0.00 | 0.00 | 0.00 | 91 | 1010.8 |
| 20260505101508 | 21 | 202 | 0.0 | 1.6 | 0.00 | 0.00 | 0.00 | 91 | 1010.4 |
| 20260505101004 | 21 | 198 | 4.8 | 8.0 | 0.00 | 0.00 | 0.00 | 91 | 1010.5 |
| 20260505100501 | 21 | 187 | 3.2 | 3.2 | 0.00 | 0.00 | 0.00 | 91 | 1010.8 |
| 20260505095957 | 21 | 204 | 0.0 | 1.6 | 0.00 | 0.00 | 0.00 | 91 | 1010.6 |
| 20260505095454 | 21 | 198 | 3.2 | 3.2 | 0.00 | 0.00 | 0.00 | 91 | 1010.6 |
| 20260505094950 | 21 | 200 | 0.0 | 0.0 | 0.00 | 0.00 | 0.00 | 91 | 1010.7 |
| 20260505094447 | 21 | 211 | 3.2 | 3.2 | 0.00 | 0.00 | 0.00 | 91 | 1010.7 |
| 20260505093943 | 21 | 183 | 0.0 | 0.0 | 0.00 | 0.00 | 0.00 | 91 | 1010.9 |
| 20260505093440 | 21 | 181 | 4.8 | 4.8 | 0.00 | 0.00 | 0.00 | 91 | 1010.5 |
| 20260505092937 | 21 | 180 | 3.2 | 3.2 | 0.00 | 0.00 | 0.00 | 91 | 1010.8 |
| 20260505092435 | 21 | 207 | 6.4 | 8.0 | 0.00 | 0.00 | 0.00 | 91 | 1010.8 |
| 20260505091932 | 21 | 210 | 3.2 | 3.2 | 0.00 | 0.00 | 0.00 | 91 | 1010.9 |
| 20260505091430 | 21 | 178 | 1.6 | 1.6 | 0.00 | 0.00 | 0.00 | 91 | 1011.0 |
| 20260505090927 | 21 | 134 | 4.8 | 8.0 | 0.00 | 0.00 | 0.00 | 91 | 1010.8 |
| 20260505090425 | 21 | 208 | 1.6 | 3.2 | 0.00 | 0.00 | 0.00 | 91 | 1010.6 |
| 20260505085922 | 21 | 210 | 3.2 | 4.8 | 0.00 | 0.00 | 0.00 | 91 | 1011.0 |
| 20260505085420 | 21 | 203 | 6.4 | 8.0 | 0.00 | 0.00 | 0.00 | 91 | 1010.9 |
| 20260505084918 | 21 | 186 | 4.8 | 8.0 | 0.00 | 0.00 | 0.00 | 91 | 1010.9 |
| 20260505084416 | 21 | 208 | 3.2 | 3.2 | 0.00 | 0.00 | 0.00 | 91 | 1011.0 |
| 20260505083914 | 21 | 208 | 3.2 | 3.2 | 0.00 | 0.00 | 0.00 | 91 | 1011.2 |
| 20260505083411 | 21 | 174 | 3.2 | 3.2 | 0.00 | 0.00 | 0.00 | 91 | 1010.9 |
| 20260505082907 | 21 | 199 | 0.0 | 1.6 | 0.00 | 0.00 | 0.00 | 91 | 1010.9 |
| 20260505082403 | 21 | 195 | 8.0 | 14.5 | 0.00 | 0.00 | 0.00 | 91 | 1011.1 |
| 20260505081900 | 21 | 199 | 4.8 | 9.7 | 0.00 | 0.00 | 0.00 | 91 | 1011.0 |
| 20260505081357 | 21 | 206 | 6.4 | 9.7 | 0.00 | 0.00 | 0.00 | 91 | 1011.3 |
| 20260505080853 | 21 | 115 | 6.4 | 8.0 | 0.00 | 0.00 | 0.00 | 91 | 1011.3 |
| 20260505080349 | 21 | 207 | 4.8 | 4.8 | 0.00 | 0.00 | 0.00 | 90 | 1011.3 |
| 20260505075845 | 21 | 171 | 3.2 | 3.2 | 0.00 | 0.00 | 0.00 | 90 | 1011.3 |
| 20260505075342 | 21 | 205 | 1.6 | 4.8 | 0.00 | 0.00 | 0.00 | 90 | 1011.3 |
| 20260505074839 | 21 | 191 | 1.6 | 3.2 | 0.00 | 0.00 | 0.00 | 90 | 1011.5 |
| 20260505074337 | 21 | 241 | 4.8 | 8.0 | 0.00 | 0.00 | 0.00 | 90 | 1011.7 |
| 20260505073834 | 21 | 217 | 1.6 | 1.6 | 0.00 | 0.00 | 0.00 | 90 | 1011.5 |
| 20260505073332 | 21 | 206 | 3.2 | 3.2 | 0.00 | 0.00 | 0.00 | 89 | 1011.6 |
| 20260505072828 | 21 | 160 | 4.8 | 9.7 | 0.00 | 0.00 | 0.00 | 90 | 1011.6 |
| 20260505072324 | 21 | 198 | 4.8 | 8.0 | 0.00 | 0.00 | 0.00 | 89 | 1011.8 |
| 20260505071820 | 21 | 233 | 1.6 | 3.2 | 0.00 | 0.00 | 0.00 | 89 | 1011.5 |
| 20260505071317 | 21 | 212 | 3.2 | 3.2 | 0.00 | 0.00 | 0.00 | 89 | 1011.9 |
| 20260505070816 | 21 | 206 | 1.6 | 1.6 | 0.00 | 0.00 | 0.00 | 89 | 1011.8 |
| 20260505070312 | 21 | 212 | 3.2 | 4.8 | 0.00 | 0.00 | 0.00 | 89 | 1012.0 |
| 20260505065807 | 21 | 142 | 9.7 | 14.5 | 0.00 | 0.00 | 0.00 | 89 | 1012.0 |
| 20260505065304 | 22 | 206 | 1.6 | 3.2 | 0.00 | 0.00 | 0.00 | 89 | 1011.9 |
| 20260505064801 | 22 | 160 | 8.0 | 12.9 | 0.00 | 0.00 | 0.00 | 89 | 1012.1 |
| 20260505064258 | 22 | 201 | 3.2 | 3.2 | 0.00 | 0.00 | 0.00 | 89 | 1012.0 |
| 20260505063756 | 22 | 153 | 4.8 | 8.0 | 0.00 | 0.00 | 0.00 | 89 | 1012.1 |
| 20260505063252 | 22 | 211 | 1.6 | 4.8 | 0.00 | 0.00 | 0.00 | 89 | 1012.2 |
| 20260505062749 | 22 | 142 | 4.8 | 9.7 | 0.00 | 0.00 | 0.00 | 89 | 1012.1 |
| 20260505062246 | 22 | 156 | 6.4 | 11.3 | 0.00 | 0.00 | 0.00 | 88 | 1012.2 |
| 20260505061743 | 22 | 234 | 8.0 | 11.3 | 0.00 | 0.00 | 0.00 | 88 | 1012.2 |
| 20260505061241 | 22 | 166 | 6.4 | 9.7 | 0.00 | 0.00 | 0.00 | 88 | 1012.4 |
| 20260505060738 | 22 | 211 | 4.8 | 8.0 | 0.00 | 0.00 | 0.00 | 88 | 1012.6 |
| 20260505060235 | 22 | 166 | 8.0 | 12.9 | 0.00 | 0.00 | 0.00 | 88 | 1012.4 |
| 20260505055730 | 22 | 219 | 0.0 | 0.0 | 0.00 | 0.00 | 0.00 | 88 | 1012.6 |
| 20260505055227 | 22 | 206 | 8.0 | 9.7 | 0.00 | 0.00 | 0.00 | 88 | 1012.3 |
| 20260505054724 | 22 | 215 | 3.2 | 3.2 | 0.00 | 0.00 | 0.00 | 88 | 1012.6 |
| 20260505054222 | 22 | 209 | 4.8 | 8.0 | 0.00 | 0.00 | 0.00 | 88 | 1012.7 |
| 20260505053720 | 22 | 193 | 3.2 | 4.8 | 0.00 | 0.00 | 0.00 | 88 | 1012.4 |
| 20260505053216 | 22 | 225 | 0.0 | 0.0 | 0.00 | 0.00 | 0.00 | 88 | 1012.6 |
| 20260505052714 | 22 | 189 | 4.8 | 4.8 | 0.00 | 0.00 | 0.00 | 88 | 1012.4 |
| 20260505052210 | 22 | 156 | 3.2 | 4.8 | 0.00 | 0.00 | 0.00 | 88 | 1012.4 |
| 20260505051707 | 22 | 197 | 1.6 | 1.6 | 0.00 | 0.00 | 0.00 | 88 | 1012.3 |
| 20260505051206 | 22 | 195 | 4.8 | 4.8 | 0.00 | 0.00 | 0.00 | 88 | 1012.4 |
| 20260505050703 | 22 | 222 | 0.0 | 0.0 | 0.00 | 0.00 | 0.00 | 88 | 1012.7 |
| 20260505050201 | 22 | 215 | 3.2 | 3.2 | 0.00 | 0.00 | 0.00 | 88 | 1012.4 |
| 20260505041631 | 22 | 210 | 1.6 | 3.2 | 0.00 | 0.00 | 0.00 | 87 | 1012.4 |
| 20260505041128 | 22 | 190 | 8.0 | 12.9 | 0.00 | 0.00 | 0.00 | 86 | 1012.4 |
| 20260505040625 | 22 | 175 | 8.0 | 11.3 | 0.00 | 0.00 | 0.00 | 86 | 1012.2 |
| 20260505040122 | 22 | 180 | 9.7 | 14.5 | 0.00 | 0.00 | 0.00 | 86 | 1012.6 |
| 20260505035618 | 22 | 208 | 8.0 | 12.9 | 0.00 | 0.00 | 0.00 | 86 | 1012.2 |
| 20260505035115 | 22 | 215 | 3.2 | 3.2 | 0.00 | 0.00 | 0.00 | 86 | 1012.3 |
| 20260505034612 | 22 | 178 | 4.8 | 4.8 | 0.00 | 0.00 | 0.00 | 85 | 1012.3 |
| 20260505034108 | 22 | 133 | 4.8 | 8.0 | 0.00 | 0.00 | 0.00 | 84 | 1012.4 |
| 20260505033605 | 23 | 201 | 3.2 | 3.2 | 0.00 | 0.00 | 0.00 | 83 | 1012.2 |
| 20260505033104 | 23 | 210 | 4.8 | 4.8 | 0.00 | 0.00 | 0.00 | 83 | 1012.3 |
| 20260505032601 | 23 | 219 | 1.6 | 1.6 | 0.00 | 0.00 | 0.00 | 82 | 1012.4 |
| 20260505032057 | 23 | 204 | 0.0 | 1.6 | 0.00 | 0.00 | 0.00 | 82 | 1012.4 |
| 20260505031555 | 23 | 215 | 1.6 | 1.6 | 0.00 | 0.00 | 0.00 | 82 | 1012.3 |
| 20260505031051 | 23 | 197 | 3.2 | 3.2 | 0.00 | 0.00 | 0.00 | 82 | 1012.3 |
| 20260505030548 | 23 | 206 | 1.6 | 1.6 | 0.00 | 0.00 | 0.00 | 82 | 1012.2 |
| 20260505030044 | 23 | 215 | 1.6 | 3.2 | 0.00 | 0.00 | 0.00 | 81 | 1012.3 |
| 20260505025540 | 23 | 216 | 4.8 | 8.0 | 0.00 | 0.00 | 0.00 | 81 | 1012.0 |
| 20260505025039 | 23 | 222 | 4.8 | 9.7 | 0.00 | 0.00 | 0.00 | 81 | 1012.2 |
| 20260505024536 | 23 | 218 | 1.6 | 1.6 | 0.00 | 0.00 | 0.00 | 80 | 1012.2 |
| 20260505024032 | 23 | 159 | 6.4 | 9.7 | 0.00 | 0.00 | 0.00 | 80 | 1012.1 |
| 20260505023529 | 23 | 134 | 0.0 | 1.6 | 0.00 | 0.00 | 0.00 | 80 | 1012.2 |
| 20260505023027 | 23 | 174 | 3.2 | 3.2 | 0.00 | 0.00 | 0.00 | 79 | 1012.2 |
| 20260505022525 | 23 | 196 | 1.6 | 3.2 | 0.00 | 0.00 | 0.00 | 79 | 1012.2 |
| 20260505022022 | 23 | 206 | 3.2 | 3.2 | 0.00 | 0.00 | 0.00 | 78 | 1012.1 |
| 20260505021518 | 23 | 203 | 3.2 | 3.2 | 0.00 | 0.00 | 0.00 | 78 | 1012.1 |
| 20260505021014 | 23 | 216 | 1.6 | 1.6 | 0.00 | 0.00 | 0.00 | 78 | 1012.3 |
| 20260505020509 | 23 | 205 | 1.6 | 3.2 | 0.00 | 0.00 | 0.00 | 77 | 1012.0 |
| 20260505020006 | 23 | 181 | 0.0 | 0.0 | 0.00 | 0.00 | 0.00 | 77 | 1011.9 |
| 20260505015503 | 23 | 209 | 3.2 | 3.2 | 0.00 | 0.00 | 0.00 | 77 | 1012.1 |
| 20260505015000 | 24 | 209 | 0.0 | 0.0 | 0.00 | 0.00 | 0.00 | 76 | 1012.0 |
| 20260505014457 | 24 | 209 | 3.2 | 3.2 | 0.00 | 0.00 | 0.00 | 75 | 1012.1 |
| 20260505013954 | 24 | 209 | 1.6 | 1.6 | 0.00 | 0.00 | 0.00 | 74 | 1012.1 |
| 20260505013451 | 25 | 206 | 1.6 | 3.2 | 0.00 | 0.00 | 0.00 | 74 | 1011.8 |
| 20260505012949 | 25 | 214 | 0.0 | 0.0 | 0.00 | 0.00 | 0.00 | 74 | 1012.0 |